START_TIME,STEP,MOV.,AL01,t_acc.,AL02,t_acc.,E37,t_acc.,H21,t_acc.
1981-08-30 06:00:34.860 ,4,0,0.,24.0,0.,24.0,2.,24.0,0.,24.0
1981-08-30 06:00:58.860 ,3,1,0.,24.0,0.,24.0,0.,24.0,0.,24.0
1981-08-30 06:01:22.860 ,3,0,0.,24.0,0.,24.0,0.,24.0,0.,24.0
1981-08-30 06:01:46.860 ,2,1,0.,24.0,0.,24.0,0.,24.0,0.,24.0
1981-08-30 06:02:10.860 ,2,0,0.,24.0,0.,24.0,0.,24.0,0.,24.0
1981-08-30 06:02:34.860 ,1,1,0.,24.0,0.,24.0,0.,24.0,0.,24.0
1981-08-30 06:02:58.860 ,1,0,0.,24.0,0.,24.0,0.,24.0,0.,24.0
1981-08-30 06:03:22.860 ,0,1,0.,24.0,0.,24.0,0.,24.0,0.,24.0
1981-08-30 06:03:46.860 ,0,0,0.,24.0,0.,24.0,0.,24.0,0.,24.0
1981-08-30 06:04:10.860 ,0,1,0.,24.0,0.,24.0,0.,24.0,0.,24.0
1981-08-30 06:04:34.860 ,0,0,0.,24.0,0.,24.0,1.,24.0,0.,24.0
1981-08-30 06:04:58.860 ,1,1,0.,24.0,0.,24.0,0.,24.0,0.,24.0
1981-08-30 06:05:22.860 ,1,0,0.,24.0,0.,24.0,1.,24.0,0.,24.0
1981-08-30 06:05:46.860 ,2,1,0.,24.0,0.,24.0,0.,24.0,0.,24.0
1981-08-30 06:06:10.860 ,2,0,1.,24.0,0.,24.0,1.,24.0,0.,24.0
1981-08-30 06:06:34.860 ,3,1,0.,24.0,0.,24.0,0.,24.0,0.,24.0
1981-08-30 06:06:58.860 ,4,1,0.,24.0,0.,24.0,1.,24.0,0.,24.0
1981-08-30 06:07:22.860 ,5,1,0.,24.0,0.,24.0,0.,24.0,0.,24.0
1981-08-30 06:07:46.860 ,6,1,0.,24.0,0.,24.0,1.,24.0,0.,24.0
1981-08-30 06:08:10.860 ,7,1,5.,24.0,0.,24.0,0.,24.0,0.,24.0
1981-08-30 06:08:34.860 ,7,1,32.,24.0,0.,24.0,0.,24.0,0.,24.0
1981-08-30 06:08:58.860 ,6,1,15.,24.0,0.,24.0,0.,24.0,0.,24.0
1981-08-30 06:09:22.860 ,5,1,0.,24.0,0.,24.0,0.,24.0,0.,24.0
1981-08-30 06:09:46.860 ,4,1,0.,24.0,0.,24.0,1.,24.0,0.,24.0
1981-08-30 06:10:10.860 ,0,0,0.,24.0,0.,24.0,0.,24.0,0.,24.0
1981-08-30 06:10:34.860 ,0,0,1.,24.0,0.,24.0,1.,24.0,0.,24.0
1981-08-30 06:10:58.860 ,1,1,0.,24.0,0.,24.0,0.,24.0,0.,24.0
1981-08-30 06:11:22.860 ,0,1,0.,24.0,0.,24.0,0.,24.0,0.,24.0
1981-08-30 06:11:46.860 ,0,1,0.,24.0,0.,24.0,0.,24.0,0.,24.0
1981-08-30 06:12:10.860 ,1,1,0.,24.0,0.,24.0,0.,24.0,0.,24.0
1981-08-30 06:12:34.860 ,2,1,0.,24.0,0.,24.0,0.,24.0,0.,24.0
1981-08-30 06:12:58.860 ,3,1,0.,24.0,0.,24.0,0.,24.0,0.,24.0
1981-08-30 06:13:22.860 ,3,0,0.,24.0,0.,24.0,0.,24.0,0.,24.0
1981-08-30 06:13:46.860 ,4,1,0.,24.0,0.,24.0,0.,24.0,0.,24.0
1981-08-30 06:14:10.860 ,4,0,0.,24.0,0.,24.0,0.,24.0,0.,24.0
1981-08-30 06:14:34.860 ,5,1,0.,24.0,0.,24.0,0.,24.0,0.,24.0
1981-08-30 06:14:58.860 ,5,0,0.,24.0,0.,24.0,0.,24.0,0.,24.0
1981-08-30 06:15:22.860 ,0,0,0.,24.0,0.,24.0,0.,24.0,0.,24.0
1981-08-30 06:15:46.860 ,0,0,0.,24.0,0.,24.0,0.,24.0,0.,24.0
1981-08-30 06:16:10.860 ,7,1,4.,24.0,0.,24.0,2.,24.0,0.,24.0
1981-08-30 06:16:34.860 ,7,0,28.,24.0,0.,24.0,0.,24.0,0.,24.0
1981-08-30 06:16:58.860 ,7,1,40.,24.0,0.,24.0,0.,24.0,0.,24.0
1981-08-30 06:17:22.860 ,7,0,24.,24.0,0.,24.0,1.,24.0,0.,24.0
1981-08-30 06:17:46.860 ,6,1,16.,24.0,0.,24.0,0.,24.0,0.,24.0
1981-08-30 06:18:10.860 ,6,0,0.,24.0,0.,24.0,0.,24.0,0.,24.0
1981-08-30 06:18:34.860 ,5,1,0.,24.0,0.,24.0,0.,24.0,0.,24.0
1981-08-30 06:18:58.860 ,0,0,0.,24.0,0.,24.0,0.,24.0,0.,24.0
1981-08-30 06:21:18.660 ,0,0,,0,,0,,0,,0
1981-08-30 06:21:22.860 ,0,0,0.,24.0,0.,24.0,0.,24.0,0.,24.0
1981-08-30 06:21:46.860 ,1,1,0.,24.0,0.,24.0,0.,24.0,0.,24.0
1981-08-30 06:22:10.860 ,1,0,0.,24.0,0.,24.0,0.,24.0,0.,24.0
1981-08-30 06:22:34.860 ,0,1,0.,24.0,0.,24.0,0.,24.0,0.,24.0
1981-08-30 06:22:58.860 ,0,0,0.,24.0,0.,24.0,1.,24.0,0.,24.0
1981-08-30 06:23:22.860 ,0,1,0.,24.0,0.,24.0,0.,24.0,0.,24.0
1981-08-30 06:23:46.860 ,0,0,0.,24.0,0.,24.0,0.,24.0,0.,24.0
1981-08-30 06:24:10.860 ,1,1,0.,24.0,0.,24.0,0.,24.0,0.,24.0
1981-08-30 06:24:34.860 ,1,0,1.,24.0,0.,24.0,0.,24.0,0.,24.0
1981-08-30 06:24:58.860 ,2,1,0.,24.0,0.,24.0,0.,24.0,0.,24.0
1981-08-30 06:25:22.860 ,2,0,0.,24.0,0.,24.0,1.,24.0,0.,24.0
1981-08-30 06:25:46.860 ,3,1,0.,24.0,0.,24.0,0.,24.0,0.,24.0
1981-08-30 06:26:10.860 ,4,1,0.,24.0,0.,24.0,0.,24.0,0.,24.0
1981-08-30 06:26:34.860 ,5,1,0.,24.0,0.,24.0,0.,24.0,0.,24.0
1981-08-30 06:26:58.860 ,6,1,0.,24.0,0.,24.0,0.,24.0,0.,24.0
1981-08-30 06:27:22.860 ,7,1,5.,24.0,0.,24.0,0.,24.0,0.,24.0
1981-08-30 06:27:46.860 ,7,1,36.,24.0,0.,24.0,1.,24.0,0.,24.0
1981-08-30 06:28:10.860 ,6,1,29.,24.0,0.,24.0,0.,24.0,0.,24.0
1981-08-30 06:28:34.860 ,5,1,0.,24.0,0.,24.0,1.,24.0,0.,24.0
1981-08-30 06:28:58.860 ,4,1,0.,24.0,0.,24.0,0.,24.0,0.,24.0
1981-08-30 06:29:22.860 ,3,1,0.,24.0,0.,24.0,0.,24.0,0.,24.0
1981-08-30 06:29:46.860 ,2,1,0.,24.0,0.,24.0,1.,24.0,0.,24.0
1981-08-30 06:30:10.860 ,1,1,0.,24.0,0.,24.0,0.,24.0,0.,24.0
1981-08-30 06:30:34.860 ,0,1,0.,24.0,0.,24.0,0.,24.0,0.,24.0
1981-08-30 06:30:58.860 ,0,1,0.,24.0,0.,24.0,0.,24.0,0.,24.0
1981-08-30 06:30:34.860 ,0,1,0.,24.0,0.,24.0,0.,24.0,0.,24.0
1981-08-30 06:30:58.860 ,0,1,0.,24.0,0.,24.0,0.,24.0,0.,24.0
1981-08-30 06:31:22.860 ,1,1,0.,24.0,0.,24.0,0.,24.0,0.,24.0
1981-08-30 06:31:46.860 ,2,1,0.,24.0,0.,24.0,1.,24.0,0.,24.0
1981-08-30 06:32:10.860 ,3,1,0.,24.0,0.,24.0,0.,24.0,0.,24.0
1981-08-30 06:32:34.860 ,3,0,0.,24.0,0.,24.0,1.,24.0,0.,24.0
1981-08-30 06:32:58.860 ,4,1,0.,24.0,0.,24.0,1.,24.0,0.,24.0
1981-08-30 06:33:22.860 ,4,0,0.,24.0,0.,24.0,0.,24.0,0.,24.0
1981-08-30 06:33:46.860 ,5,1,0.,24.0,0.,24.0,1.,24.0,0.,24.0
1981-08-30 06:34:10.850 ,5,0,0.,24.0,0.,24.0,0.,24.0,0.,24.0
1981-08-30 06:34:34.850 ,6,1,0.,24.0,0.,24.0,0.,24.0,0.,24.0
1981-08-30 06:34:58.850 ,6,0,1.,24.0,0.,24.0,0.,24.0,0.,24.0
1981-08-30 06:35:22.850 ,7,1,5.,24.0,0.,24.0,0.,24.0,0.,24.0
1981-08-30 06:35:46.850 ,7,0,30.,24.0,0.,24.0,0.,24.0,0.,24.0
1981-08-30 06:36:10.850 ,7,1,29.,24.0,0.,24.0,0.,24.0,0.,24.0
1981-08-30 06:36:34.850 ,7,0,23.,24.0,0.,24.0,0.,24.0,0.,24.0
1981-08-30 06:36:58.850 ,6,1,26.,24.0,0.,24.0,0.,24.0,0.,24.0
1981-08-30 06:37:22.850 ,6,0,0.,24.0,0.,24.0,0.,24.0,0.,24.0
1981-08-30 06:37:46.850 ,5,1,0.,24.0,0.,24.0,0.,24.0,0.,24.0
1981-08-30 06:38:10.850 ,5,0,0.,24.0,0.,24.0,0.,24.0,0.,24.0
1981-08-30 06:38:34.850 ,4,1,0.,24.0,0.,24.0,0.,24.0,0.,24.0
1981-08-30 06:38:58.850 ,4,0,0.,24.0,0.,24.0,0.,24.0,0.,24.0
1981-08-30 06:39:22.850 ,3,1,1.,24.0,0.,24.0,0.,24.0,0.,24.0
1981-08-30 06:39:46.850 ,3,0,0.,24.0,0.,24.0,0.,24.0,0.,24.0
1981-08-30 06:40:10.850 ,2,1,1.,24.0,0.,24.0,0.,24.0,0.,24.0
1981-08-30 06:40:34.850 ,2,0,0.,24.0,0.,24.0,0.,24.0,0.,24.0
1981-08-30 06:40:58.850 ,1,1,0.,24.0,1.,24.0,2.,24.0,0.,24.0
1981-08-30 06:41:22.850 ,1,0,0.,24.0,0.,24.0,0.,24.0,0.,24.0
1981-08-30 06:41:46.850 ,0,1,0.,24.0,0.,24.0,0.,24.0,0.,24.0
1981-08-30 06:42:10.850 ,0,0,1.,24.0,0.,24.0,0.,24.0,0.,24.0
1981-08-30 06:42:34.850 ,0,1,0.,24.0,0.,24.0,0.,24.0,0.,24.0
1981-08-30 06:42:58.850 ,0,0,0.,24.0,0.,24.0,1.,24.0,0.,24.0
1981-08-30 06:43:22.850 ,1,1,0.,24.0,0.,24.0,0.,24.0,0.,24.0
1981-08-30 06:43:46.850 ,1,0,0.,24.0,0.,24.0,0.,24.0,0.,24.0
1981-08-30 06:44:10.850 ,2,1,0.,24.0,0.,24.0,0.,24.0,0.,24.0
1981-08-30 06:44:34.850 ,2,0,0.,24.0,0.,24.0,0.,24.0,0.,24.0
1981-08-30 06:44:58.850 ,3,1,0.,24.0,0.,24.0,0.,24.0,0.,24.0
1981-08-30 06:45:22.850 ,4,1,0.,24.0,0.,24.0,0.,24.0,0.,24.0
1981-08-30 06:45:46.850 ,5,1,0.,24.0,1.,24.0,3.,24.0,0.,24.0
1981-08-30 06:46:10.850 ,6,1,0.,24.0,0.,24.0,1.,24.0,0.,24.0
1981-08-30 06:46:34.850 ,7,1,12.,24.0,0.,24.0,0.,24.0,0.,24.0
1981-08-30 06:46:58.850 ,7,1,26.,24.0,0.,24.0,0.,24.0,0.,24.0
1981-08-30 06:47:22.850 ,6,1,27.,24.0,0.,24.0,0.,24.0,0.,24.0
1981-08-30 06:47:46.850 ,5,1,0.,24.0,0.,24.0,0.,24.0,0.,24.0
1981-08-30 06:48:10.850 ,4,1,1.,24.0,0.,24.0,0.,24.0,0.,24.0
1981-08-30 06:48:34.850 ,3,1,0.,24.0,0.,24.0,0.,24.0,0.,24.0
1981-08-30 06:48:58.850 ,2,1,0.,24.0,0.,24.0,0.,24.0,0.,24.0
1981-08-30 06:49:22.850 ,1,1,0.,24.0,0.,24.0,1.,24.0,0.,24.0
1981-08-30 06:49:46.850 ,0,1,0.,24.0,0.,24.0,0.,24.0,0.,24.0
1981-08-30 06:50:10.850 ,0,1,0.,24.0,0.,24.0,0.,24.0,0.,24.0
1981-08-30 06:50:34.850 ,1,1,0.,24.0,0.,24.0,0.,24.0,0.,24.0
1981-08-30 06:50:58.850 ,2,1,0.,24.0,0.,24.0,0.,24.0,0.,24.0
1981-08-30 06:51:22.850 ,3,1,0.,24.0,0.,24.0,2.,24.0,0.,24.0
1981-08-30 06:51:46.850 ,3,0,0.,24.0,0.,24.0,0.,24.0,0.,24.0
1981-08-30 06:52:10.850 ,4,1,0.,24.0,0.,24.0,1.,24.0,0.,24.0
1981-08-30 06:52:34.850 ,4,0,0.,24.0,0.,24.0,1.,24.0,0.,24.0
1981-08-30 06:52:58.850 ,5,1,0.,24.0,0.,24.0,0.,24.0,0.,24.0
1981-08-30 06:53:22.850 ,5,0,0.,24.0,0.,24.0,1.,24.0,0.,24.0
1981-08-30 06:53:46.850 ,6,1,0.,24.0,0.,24.0,0.,24.0,0.,24.0
1981-08-30 06:54:10.850 ,6,0,0.,24.0,1.,24.0,0.,24.0,0.,24.0
1981-08-30 06:54:34.850 ,7,1,6.,24.0,0.,24.0,1.,24.0,0.,24.0
1981-08-30 06:54:58.850 ,7,0,39.,24.0,0.,24.0,0.,24.0,0.,24.0
1981-08-30 06:55:22.850 ,7,1,21.,24.0,0.,24.0,0.,24.0,0.,24.0
1981-08-30 06:55:46.850 ,7,0,21.,24.0,0.,24.0,0.,24.0,0.,24.0
1981-08-30 06:56:10.850 ,6,1,19.,24.0,0.,24.0,0.,24.0,0.,24.0
1981-08-30 06:56:34.850 ,6,0,0.,24.0,0.,24.0,1.,24.0,0.,24.0
1981-08-30 06:56:58.850 ,5,1,0.,24.0,0.,24.0,1.,24.0,0.,24.0
1981-08-30 06:57:22.850 ,5,0,0.,24.0,0.,24.0,1.,24.0,0.,24.0
1981-08-30 06:57:46.850 ,4,1,0.,24.0,0.,24.0,0.,24.0,0.,24.0
1981-08-30 06:58:10.850 ,4,0,0.,24.0,0.,24.0,2.,24.0,0.,24.0
1981-08-30 06:58:34.850 ,3,1,0.,24.0,0.,24.0,0.,24.0,0.,24.0
1981-08-30 06:58:58.850 ,3,0,0.,24.0,0.,24.0,0.,24.0,0.,24.0
1981-08-30 06:59:22.850 ,2,1,0.,24.0,0.,24.0,0.,24.0,0.,24.0
1981-08-30 06:59:46.850 ,2,0,0.,24.0,0.,24.0,1.,24.0,0.,24.0
1981-08-30 07:00:10.850 ,1,1,0.,24.0,0.,24.0,0.,24.0,0.,24.0
1981-08-30 07:00:34.850 ,1,0,0.,24.0,0.,24.0,1.,24.0,0.,24.0
1981-08-30 07:00:58.850 ,0,1,0.,24.0,0.,24.0,0.,24.0,0.,24.0
1981-08-30 07:01:22.850 ,0,0,1.,24.0,1.,24.0,0.,24.0,0.,24.0
1981-08-30 07:01:46.850 ,0,1,0.,24.0,0.,24.0,1.,24.0,0.,24.0
1981-08-30 07:02:10.850 ,0,0,0.,24.0,0.,24.0,1.,24.0,0.,24.0
1981-08-30 07:02:34.850 ,1,1,0.,24.0,0.,24.0,0.,24.0,0.,24.0
1981-08-30 07:02:58.850 ,1,0,0.,24.0,0.,24.0,1.,24.0,0.,24.0
1981-08-30 07:03:22.850 ,2,1,0.,24.0,0.,24.0,0.,24.0,0.,24.0
1981-08-30 07:03:46.850 ,2,0,0.,24.0,0.,24.0,0.,24.0,0.,24.0
1981-08-30 07:04:10.850 ,3,1,0.,24.0,0.,24.0,0.,24.0,0.,24.0
1981-08-30 07:04:34.850 ,4,1,1.,24.0,0.,24.0,1.,24.0,0.,24.0
1981-08-30 07:04:58.850 ,5,1,0.,24.0,0.,24.0,0.,24.0,0.,24.0
1981-08-30 07:05:22.850 ,6,1,0.,24.0,0.,24.0,1.,24.0,0.,24.0
1981-08-30 07:05:46.850 ,7,1,8.,24.0,0.,24.0,0.,24.0,0.,24.0
1981-08-30 07:06:10.850 ,7,1,29.,24.0,0.,24.0,1.,24.0,0.,24.0
1981-08-30 07:06:34.850 ,6,1,25.,24.0,0.,24.0,0.,24.0,0.,24.0
1981-08-30 07:06:58.850 ,5,1,0.,24.0,0.,24.0,0.,24.0,0.,24.0
1981-08-30 07:07:22.850 ,4,1,0.,24.0,0.,24.0,0.,24.0,0.,24.0
1981-08-30 07:07:46.850 ,3,1,0.,24.0,0.,24.0,1.,24.0,0.,24.0
1981-08-30 07:08:10.850 ,2,1,0.,24.0,0.,24.0,1.,24.0,0.,24.0
1981-08-30 07:08:34.850 ,1,1,0.,24.0,0.,24.0,0.,24.0,0.,24.0
1981-08-30 07:08:58.850 ,0,1,0.,24.0,0.,24.0,1.,24.0,0.,24.0
1981-08-30 07:09:22.850 ,0,1,0.,24.0,0.,24.0,0.,24.0,0.,24.0
1981-08-30 07:09:46.850 ,1,1,0.,24.0,0.,24.0,0.,24.0,0.,24.0
1981-08-30 07:10:10.850 ,2,1,0.,24.0,0.,24.0,1.,24.0,0.,24.0
1981-08-30 07:10:34.850 ,3,1,0.,24.0,0.,24.0,0.,24.0,0.,24.0
1981-08-30 07:10:58.850 ,3,0,0.,24.0,0.,24.0,0.,24.0,0.,24.0
1981-08-30 07:11:22.850 ,4,1,0.,24.0,0.,24.0,0.,24.0,0.,24.0
1981-08-30 07:11:46.850 ,4,0,0.,24.0,0.,24.0,0.,24.0,0.,24.0
1981-08-30 07:12:10.850 ,5,1,0.,24.0,0.,24.0,0.,24.0,0.,24.0
1981-08-30 07:12:34.850 ,5,0,0.,24.0,0.,24.0,0.,24.0,0.,24.0
1981-08-30 07:12:58.850 ,6,1,0.,24.0,0.,24.0,0.,24.0,0.,24.0
1981-08-30 07:13:22.850 ,6,0,0.,24.0,0.,24.0,0.,24.0,0.,24.0
1981-08-30 07:13:46.850 ,7,1,7.,24.0,1.,24.0,0.,24.0,0.,24.0
1981-08-30 07:14:10.850 ,7,0,29.,24.0,0.,24.0,0.,24.0,0.,24.0
1981-08-30 07:14:34.850 ,7,1,26.,24.0,0.,24.0,1.,24.0,0.,24.0
1981-08-30 07:14:58.850 ,7,0,30.,24.0,0.,24.0,0.,24.0,0.,24.0
1981-08-30 07:15:22.850 ,6,1,23.,24.0,0.,24.0,0.,24.0,0.,24.0
1981-08-30 07:15:46.850 ,6,0,0.,24.0,0.,24.0,0.,24.0,0.,24.0
1981-08-30 07:16:10.850 ,5,1,0.,24.0,0.,24.0,0.,24.0,0.,24.0
1981-08-30 07:16:34.850 ,5,0,0.,24.0,0.,24.0,0.,24.0,0.,24.0
1981-08-30 07:16:58.850 ,4,1,0.,24.0,0.,24.0,1.,24.0,0.,24.0
1981-08-30 07:17:22.850 ,4,0,0.,24.0,0.,24.0,0.,24.0,0.,24.0
1981-08-30 07:17:46.850 ,3,1,0.,24.0,0.,24.0,0.,24.0,0.,24.0
1981-08-30 07:18:10.850 ,3,0,0.,24.0,0.,24.0,0.,24.0,0.,24.0
1981-08-30 07:18:34.850 ,2,1,1.,24.0,0.,24.0,0.,24.0,0.,24.0
1981-08-30 07:18:58.850 ,2,0,0.,24.0,0.,24.0,0.,24.0,0.,24.0
1981-08-30 07:19:22.850 ,1,1,0.,24.0,0.,24.0,0.,24.0,0.,24.0
1981-08-30 07:19:46.850 ,1,0,0.,24.0,0.,24.0,0.,24.0,0.,24.0
1981-08-30 07:20:10.850 ,0,1,0.,24.0,0.,24.0,0.,24.0,0.,24.0
1981-08-30 07:20:34.850 ,0,0,1.,24.0,0.,24.0,1.,24.0,0.,24.0
1981-08-30 07:20:58.850 ,0,1,0.,24.0,0.,24.0,0.,24.0,0.,24.0
1981-08-30 07:21:22.850 ,0,0,1.,24.0,0.,24.0,0.,24.0,0.,24.0
1981-08-30 07:21:46.850 ,1,1,1.,24.0,0.,24.0,0.,24.0,0.,24.0
1981-08-30 07:22:10.850 ,1,0,0.,24.0,0.,24.0,1.,24.0,0.,24.0
1981-08-30 07:22:34.850 ,2,1,0.,24.0,0.,24.0,0.,24.0,0.,24.0
1981-08-30 07:22:58.850 ,2,0,0.,24.0,0.,24.0,0.,24.0,0.,24.0
1981-08-30 07:23:22.850 ,3,1,0.,24.0,0.,24.0,1.,24.0,0.,24.0
1981-08-30 07:23:46.850 ,4,1,0.,24.0,0.,24.0,2.,24.0,0.,24.0
1981-08-30 07:24:10.850 ,5,1,0.,24.0,0.,24.0,0.,24.0,0.,24.0
1981-08-30 07:24:34.850 ,6,1,0.,24.0,0.,24.0,1.,24.0,0.,24.0
1981-08-30 07:24:58.850 ,7,1,8.,24.0,0.,24.0,0.,24.0,0.,24.0
1981-08-30 07:25:22.850 ,7,1,46.,24.0,0.,24.0,0.,24.0,0.,24.0
1981-08-30 07:25:46.850 ,6,1,23.,24.0,0.,24.0,0.,24.0,0.,24.0
1981-08-30 07:26:10.850 ,5,1,0.,24.0,0.,24.0,0.,24.0,0.,24.0
1981-08-30 07:26:34.850 ,4,1,0.,24.0,0.,24.0,0.,24.0,0.,24.0
1981-08-30 07:26:58.850 ,3,1,1.,24.0,0.,24.0,2.,24.0,0.,24.0
1981-08-30 07:27:22.850 ,2,1,0.,24.0,0.,24.0,0.,24.0,0.,24.0
1981-08-30 07:27:46.850 ,1,1,0.,24.0,0.,24.0,2.,24.0,0.,24.0
1981-08-30 07:28:10.850 ,0,1,0.,24.0,0.,24.0,1.,24.0,0.,24.0
1981-08-30 07:28:34.850 ,0,1,0.,24.0,0.,24.0,0.,24.0,0.,24.0
1981-08-30 07:28:58.850 ,1,1,0.,24.0,0.,24.0,1.,24.0,0.,24.0
1981-08-30 07:29:22.850 ,2,1,0.,24.0,0.,24.0,0.,24.0,0.,24.0
1981-08-30 07:29:46.850 ,3,1,1.,24.0,0.,24.0,0.,24.0,0.,24.0
1981-08-30 07:30:10.850 ,3,0,0.,24.0,0.,24.0,0.,24.0,0.,24.0
1981-08-30 07:30:34.850 ,4,1,0.,24.0,0.,24.0,0.,24.0,0.,24.0
1981-08-30 07:30:58.850 ,4,0,0.,24.0,0.,24.0,1.,24.0,0.,24.0
1981-08-30 07:31:22.850 ,5,1,0.,24.0,0.,24.0,2.,24.0,0.,24.0
1981-08-30 07:31:46.850 ,5,0,1.,24.0,0.,24.0,1.,24.0,0.,24.0
1981-08-30 07:32:10.850 ,6,1,0.,24.0,0.,24.0,0.,24.0,0.,24.0
1981-08-30 07:32:34.850 ,6,0,0.,24.0,0.,24.0,0.,24.0,0.,24.0
1981-08-30 07:32:58.850 ,7,1,10.,24.0,0.,24.0,0.,24.0,0.,24.0
1981-08-30 07:33:22.850 ,7,0,34.,24.0,0.,24.0,0.,24.0,0.,24.0
1981-08-30 07:33:46.850 ,7,1,23.,24.0,0.,24.0,0.,24.0,0.,24.0
1981-08-30 07:34:10.850 ,7,0,26.,24.0,0.,24.0,0.,24.0,0.,24.0
1981-08-30 07:34:34.850 ,6,1,19.,24.0,0.,24.0,0.,24.0,0.,24.0
1981-08-30 07:34:58.850 ,6,0,0.,24.0,0.,24.0,0.,24.0,0.,24.0
1981-08-30 07:35:22.850 ,5,1,0.,24.0,0.,24.0,0.,24.0,0.,24.0
1981-08-30 07:35:46.850 ,5,0,0.,24.0,0.,24.0,0.,24.0,0.,24.0
1981-08-30 07:36:10.850 ,4,1,0.,24.0,0.,24.0,0.,24.0,0.,24.0
1981-08-30 07:36:34.850 ,4,0,0.,24.0,0.,24.0,0.,24.0,0.,24.0
1981-08-30 07:36:58.850 ,3,1,0.,24.0,0.,24.0,0.,24.0,0.,24.0
1981-08-30 07:37:22.850 ,3,0,0.,24.0,0.,24.0,0.,24.0,0.,24.0
1981-08-30 07:37:46.850 ,2,1,1.,24.0,0.,24.0,0.,24.0,0.,24.0
1981-08-30 07:38:10.850 ,2,0,0.,24.0,0.,24.0,0.,24.0,0.,24.0
1981-08-30 07:38:34.850 ,1,1,0.,24.0,0.,24.0,0.,24.0,0.,24.0
1981-08-30 07:38:58.850 ,1,0,0.,24.0,0.,24.0,0.,24.0,0.,24.0
1981-08-30 07:39:22.850 ,0,1,0.,24.0,0.,24.0,0.,24.0,0.,24.0
1981-08-30 07:39:46.850 ,0,0,0.,24.0,0.,24.0,1.,24.0,0.,24.0
1981-08-30 07:40:10.850 ,0,1,0.,24.0,0.,24.0,0.,24.0,0.,24.0
1981-08-30 07:40:34.850 ,0,0,0.,24.0,1.,24.0,0.,24.0,0.,24.0
1981-08-30 07:40:58.850 ,1,1,0.,24.0,0.,24.0,0.,24.0,0.,24.0
1981-08-30 07:41:22.850 ,1,0,0.,24.0,0.,24.0,1.,24.0,0.,24.0
1981-08-30 07:41:46.850 ,2,1,0.,24.0,0.,24.0,0.,24.0,0.,24.0
1981-08-30 07:42:10.850 ,2,0,0.,24.0,0.,24.0,1.,24.0,0.,24.0
1981-08-30 07:42:34.850 ,3,1,0.,24.0,0.,24.0,1.,24.0,0.,24.0
1981-08-30 07:42:58.850 ,4,1,0.,24.0,0.,24.0,0.,24.0,0.,24.0
1981-08-30 07:43:22.850 ,5,1,0.,24.0,0.,24.0,0.,24.0,0.,24.0
1981-08-30 07:43:46.850 ,6,1,0.,24.0,0.,24.0,0.,24.0,0.,24.0
1981-08-30 07:44:10.850 ,7,1,7.,24.0,0.,24.0,0.,24.0,0.,24.0
1981-08-30 07:44:34.850 ,7,1,28.,24.0,0.,24.0,0.,24.0,0.,24.0
1981-08-30 07:44:58.850 ,6,1,30.,24.0,1.,24.0,0.,24.0,0.,24.0
1981-08-30 07:45:22.850 ,5,1,0.,24.0,0.,24.0,0.,24.0,0.,24.0
1981-08-30 07:45:46.850 ,4,1,0.,24.0,0.,24.0,0.,24.0,0.,24.0
1981-08-30 07:46:10.850 ,3,1,0.,24.0,0.,24.0,0.,24.0,0.,24.0
1981-08-30 07:46:34.850 ,2,1,0.,24.0,0.,24.0,0.,24.0,0.,24.0
1981-08-30 07:46:58.850 ,1,1,0.,24.0,0.,24.0,2.,24.0,0.,24.0
1981-08-30 07:47:22.850 ,0,1,0.,24.0,1.,24.0,0.,24.0,0.,24.0
1981-08-30 07:47:46.850 ,0,1,0.,24.0,0.,24.0,0.,24.0,0.,24.0
1981-08-30 07:48:10.850 ,1,1,0.,24.0,0.,24.0,0.,24.0,0.,24.0
1981-08-30 07:48:34.850 ,2,1,0.,24.0,0.,24.0,1.,24.0,0.,24.0
1981-08-30 07:48:58.850 ,3,1,0.,24.0,0.,24.0,0.,24.0,0.,24.0
1981-08-30 07:49:22.850 ,3,0,0.,24.0,0.,24.0,0.,24.0,0.,24.0
1981-08-30 07:49:46.850 ,4,1,0.,24.0,0.,24.0,0.,24.0,0.,24.0
1981-08-30 07:50:10.850 ,4,0,0.,24.0,0.,24.0,0.,24.0,0.,24.0
1981-08-30 07:50:34.850 ,5,1,0.,24.0,0.,24.0,1.,24.0,0.,24.0
1981-08-30 07:50:58.850 ,5,0,0.,24.0,1.,24.0,0.,24.0,0.,24.0
1981-08-30 07:51:22.850 ,6,1,0.,24.0,0.,24.0,0.,24.0,0.,24.0
1981-08-30 07:51:46.850 ,6,0,0.,24.0,0.,24.0,0.,24.0,0.,24.0
1981-08-30 07:52:10.850 ,7,1,10.,24.0,0.,24.0,1.,24.0,0.,24.0
1981-08-30 07:52:34.850 ,7,0,17.,24.0,0.,24.0,1.,24.0,0.,24.0
1981-08-30 07:52:58.850 ,7,1,30.,24.0,0.,24.0,0.,24.0,0.,24.0
1981-08-30 07:53:22.850 ,7,0,30.,24.0,0.,24.0,0.,24.0,0.,24.0
1981-08-30 07:53:46.850 ,6,1,18.,24.0,0.,24.0,0.,24.0,0.,24.0
1981-08-30 07:54:10.850 ,6,0,0.,24.0,0.,24.0,0.,24.0,0.,24.0
1981-08-30 07:54:34.850 ,5,1,0.,24.0,0.,24.0,0.,24.0,0.,24.0
1981-08-30 07:54:58.850 ,5,0,0.,24.0,0.,24.0,0.,24.0,0.,24.0
1981-08-30 07:55:22.850 ,4,1,0.,24.0,0.,24.0,2.,24.0,0.,24.0
1981-08-30 07:55:46.850 ,4,0,0.,24.0,0.,24.0,0.,24.0,0.,24.0
1981-08-30 07:56:10.850 ,3,1,0.,24.0,0.,24.0,0.,24.0,0.,24.0
1981-08-30 07:56:34.850 ,3,0,0.,24.0,0.,24.0,1.,24.0,0.,24.0
1981-08-30 07:56:58.850 ,2,1,0.,24.0,0.,24.0,1.,24.0,0.,24.0
1981-08-30 07:57:22.850 ,2,0,0.,24.0,0.,24.0,0.,24.0,0.,24.0
1981-08-30 07:57:46.850 ,1,1,0.,24.0,0.,24.0,1.,24.0,0.,24.0
1981-08-30 07:58:10.850 ,1,0,0.,24.0,0.,24.0,0.,24.0,0.,24.0
1981-08-30 07:58:34.850 ,0,0,0.,24.0,0.,24.0,0.,24.0,0.,24.0
1981-08-30 07:58:58.850 ,0,0,,0,,0,,0,,0
1981-08-30 07:58:58.850 ,0,0,0.,24.0,0.,24.0,0.,24.0,0.,24.0
1981-08-30 07:59:22.850 ,0,1,0.,24.0,0.,24.0,1.,24.0,0.,24.0
1981-08-30 07:59:46.850 ,0,0,0.,24.0,0.,24.0,0.,24.0,0.,24.0
1981-08-30 08:00:10.850 ,1,1,0.,24.0,0.,24.0,0.,24.0,0.,24.0
1981-08-30 08:00:34.850 ,1,0,0.,24.0,0.,24.0,1.,24.0,0.,24.0
1981-08-30 08:00:58.850 ,2,1,1.,24.0,0.,24.0,2.,24.0,0.,24.0
1981-08-30 08:01:22.850 ,2,0,0.,24.0,0.,24.0,1.,24.0,0.,24.0
1981-08-30 08:01:46.850 ,3,1,0.,24.0,0.,24.0,0.,24.0,0.,24.0
1981-08-30 08:02:10.850 ,4,1,0.,24.0,0.,24.0,0.,24.0,0.,24.0
1981-08-30 08:02:34.850 ,5,1,0.,24.0,0.,24.0,0.,24.0,0.,24.0
1981-08-30 08:02:58.850 ,6,1,0.,24.0,0.,24.0,0.,24.0,0.,24.0
1981-08-30 08:03:22.850 ,7,1,11.,24.0,0.,24.0,0.,24.0,0.,24.0
1981-08-30 08:03:46.850 ,7,1,22.,24.0,0.,24.0,0.,24.0,0.,24.0
1981-08-30 08:04:10.850 ,6,1,21.,24.0,0.,24.0,0.,24.0,0.,24.0
1981-08-30 08:04:34.850 ,5,1,0.,24.0,0.,24.0,0.,24.0,0.,24.0
1981-08-30 08:04:58.850 ,4,1,0.,24.0,0.,24.0,0.,24.0,0.,24.0
1981-08-30 08:05:22.850 ,3,1,0.,24.0,0.,24.0,0.,24.0,0.,24.0
1981-08-30 08:05:46.850 ,2,1,0.,24.0,0.,24.0,1.,24.0,0.,24.0
1981-08-30 08:06:10.850 ,1,1,0.,24.0,0.,24.0,0.,24.0,0.,24.0
1981-08-30 08:06:34.850 ,0,1,0.,24.0,0.,24.0,0.,24.0,0.,24.0
1981-08-30 08:06:58.850 ,0,1,0.,24.0,0.,24.0,0.,24.0,0.,24.0
1981-08-30 08:07:22.850 ,1,1,0.,24.0,0.,24.0,0.,24.0,0.,24.0
1981-08-30 08:07:46.850 ,2,1,0.,24.0,0.,24.0,0.,24.0,0.,24.0
1981-08-30 08:08:10.850 ,3,1,0.,24.0,0.,24.0,0.,24.0,0.,24.0
1981-08-30 08:08:34.850 ,3,0,0.,24.0,0.,24.0,0.,24.0,0.,24.0
1981-08-30 08:08:58.850 ,4,1,0.,24.0,0.,24.0,0.,24.0,0.,24.0
1981-08-30 08:09:22.850 ,4,0,0.,24.0,0.,24.0,1.,24.0,0.,24.0
1981-08-30 08:09:46.850 ,5,1,0.,24.0,0.,24.0,1.,24.0,0.,24.0
1981-08-30 08:10:10.850 ,5,0,0.,24.0,0.,24.0,0.,24.0,0.,24.0
1981-08-30 08:10:34.850 ,6,1,1.,24.0,0.,24.0,0.,24.0,0.,24.0
1981-08-30 08:10:58.850 ,6,0,0.,24.0,1.,24.0,0.,24.0,0.,24.0
1981-08-30 08:11:22.850 ,7,1,5.,24.0,0.,24.0,0.,24.0,0.,24.0
1981-08-30 08:11:46.850 ,7,0,27.,24.0,0.,24.0,0.,24.0,0.,24.0
1981-08-30 08:12:10.850 ,7,1,36.,24.0,0.,24.0,0.,24.0,0.,24.0
1981-08-30 08:12:34.850 ,7,0,27.,24.0,0.,24.0,0.,24.0,0.,24.0
1981-08-30 08:12:58.850 ,6,1,25.,24.0,0.,24.0,0.,24.0,0.,24.0
1981-08-30 08:13:22.850 ,6,0,0.,24.0,0.,24.0,0.,24.0,0.,24.0
1981-08-30 08:13:46.850 ,5,1,0.,24.0,0.,24.0,0.,24.0,0.,24.0
1981-08-30 08:14:10.850 ,5,0,0.,24.0,0.,24.0,0.,24.0,0.,24.0
1981-08-30 08:14:34.850 ,4,1,0.,24.0,1.,24.0,0.,24.0,0.,24.0
1981-08-30 08:14:58.850 ,4,0,0.,24.0,0.,24.0,1.,24.0,0.,24.0
1981-08-30 08:15:22.850 ,3,1,0.,24.0,0.,24.0,0.,24.0,0.,24.0
1981-08-30 08:15:46.850 ,3,0,0.,24.0,0.,24.0,0.,24.0,0.,24.0
1981-08-30 08:16:10.850 ,2,1,0.,24.0,0.,24.0,1.,24.0,0.,24.0
1981-08-30 08:16:34.850 ,2,0,1.,24.0,0.,24.0,1.,24.0,0.,24.0
1981-08-30 08:16:58.850 ,1,1,0.,24.0,0.,24.0,1.,24.0,0.,24.0
1981-08-30 08:17:22.850 ,1,0,0.,24.0,0.,24.0,0.,24.0,0.,24.0
1981-08-30 08:17:46.850 ,0,1,0.,24.0,0.,24.0,0.,24.0,0.,24.0
1981-08-30 08:18:10.850 ,0,0,0.,24.0,0.,24.0,0.,24.0,0.,24.0
1981-08-30 08:18:34.850 ,0,1,0.,24.0,0.,24.0,0.,24.0,0.,24.0
1981-08-30 08:18:58.850 ,0,0,0.,24.0,0.,24.0,0.,24.0,0.,24.0
1981-08-30 08:19:22.850 ,1,1,0.,24.0,0.,24.0,1.,24.0,0.,24.0
1981-08-30 08:19:46.850 ,1,0,0.,24.0,0.,24.0,2.,24.0,0.,24.0
1981-08-30 08:20:10.850 ,2,1,0.,24.0,0.,24.0,0.,24.0,0.,24.0
1981-08-30 08:20:34.850 ,2,0,0.,24.0,0.,24.0,1.,24.0,0.,24.0
1981-08-30 08:20:58.850 ,3,1,0.,24.0,0.,24.0,1.,24.0,0.,24.0
1981-08-30 08:21:22.850 ,4,1,0.,24.0,0.,24.0,0.,24.0,0.,24.0
1981-08-30 08:21:46.850 ,5,1,0.,24.0,0.,24.0,1.,24.0,0.,24.0
1981-08-30 08:22:10.850 ,6,1,0.,24.0,0.,24.0,0.,24.0,0.,24.0
1981-08-30 08:22:34.850 ,7,1,12.,24.0,0.,24.0,0.,24.0,0.,24.0
1981-08-30 08:22:58.850 ,7,1,30.,24.0,0.,24.0,0.,24.0,0.,24.0
1981-08-30 08:23:22.850 ,6,1,22.,24.0,0.,24.0,1.,24.0,0.,24.0
1981-08-30 08:23:46.850 ,5,1,0.,24.0,0.,24.0,0.,24.0,0.,24.0
1981-08-30 08:24:10.850 ,4,1,0.,24.0,0.,24.0,0.,24.0,0.,24.0
1981-08-30 08:24:34.850 ,3,1,0.,24.0,0.,24.0,0.,24.0,0.,24.0
1981-08-30 08:24:58.850 ,2,1,0.,24.0,0.,24.0,0.,24.0,0.,24.0
1981-08-30 08:25:22.850 ,1,1,0.,24.0,0.,24.0,0.,24.0,0.,24.0
1981-08-30 08:25:46.850 ,0,1,0.,24.0,0.,24.0,0.,24.0,0.,24.0
1981-08-30 08:26:10.850 ,0,1,0.,24.0,0.,24.0,0.,24.0,0.,24.0
1981-08-30 08:26:34.850 ,1,1,0.,24.0,0.,24.0,0.,24.0,0.,24.0
1981-08-30 08:26:58.850 ,2,1,0.,24.0,0.,24.0,0.,24.0,0.,24.0
1981-08-30 08:27:22.850 ,3,1,0.,24.0,0.,24.0,0.,24.0,0.,24.0
1981-08-30 08:27:46.850 ,3,0,0.,24.0,0.,24.0,0.,24.0,0.,24.0
1981-08-30 08:28:10.850 ,4,1,0.,24.0,0.,24.0,1.,24.0,0.,24.0
1981-08-30 08:28:34.850 ,4,0,0.,24.0,0.,24.0,0.,24.0,0.,24.0
1981-08-30 08:28:58.850 ,5,1,0.,24.0,0.,24.0,1.,24.0,0.,24.0
1981-08-30 08:29:22.850 ,5,0,0.,24.0,0.,24.0,1.,24.0,0.,24.0
1981-08-30 08:29:46.850 ,6,1,0.,24.0,0.,24.0,0.,24.0,0.,24.0
1981-08-30 08:30:10.850 ,6,0,0.,24.0,0.,24.0,0.,24.0,0.,24.0
1981-08-30 08:30:34.850 ,7,1,10.,24.0,0.,24.0,1.,24.0,0.,24.0
1981-08-30 08:30:58.850 ,7,0,32.,24.0,0.,24.0,0.,24.0,0.,24.0
1981-08-30 08:31:22.850 ,7,1,25.,24.0,0.,24.0,0.,24.0,0.,24.0
1981-08-30 08:31:46.850 ,7,0,38.,24.0,0.,24.0,1.,24.0,0.,24.0
1981-08-30 08:32:10.850 ,6,1,27.,24.0,0.,24.0,1.,24.0,0.,24.0
1981-08-30 08:32:34.850 ,6,0,0.,24.0,0.,24.0,0.,24.0,0.,24.0
1981-08-30 08:32:58.850 ,5,1,0.,24.0,0.,24.0,0.,24.0,0.,24.0
1981-08-30 08:33:22.850 ,5,0,0.,24.0,0.,24.0,0.,24.0,0.,24.0
1981-08-30 08:33:46.850 ,4,1,0.,24.0,0.,24.0,1.,24.0,0.,24.0
1981-08-30 08:34:10.850 ,4,0,0.,24.0,0.,24.0,0.,24.0,0.,24.0
1981-08-30 08:34:34.850 ,3,1,0.,24.0,0.,24.0,0.,24.0,0.,24.0